DW4075 Weather Reports


Display with metric or nautical units.
time (UTC)temp
F
wind
direction
speed
MPH
gust
MPH
rain 1hr
in
rain 24hr
in
rain mn
in
humidity
%
barometer
mb
20260504014447 64 221 5.0 10.0 0.00 0.00 0.00 26 1017.9
20260504014218 65 223 5.0 10.0 0.00 0.00 0.00 25 1018.0
20260504013712 65 248 4.0 10.0 0.00 0.00 0.00 24 1018.3
20260504013209 66 243 4.0 8.0 0.00 0.00 0.00 23 1018.2
20260504012935 66 215 3.0 8.0 0.00 0.00 0.00 23 1018.3
20260504012209 66 194 1.0 5.0 0.00 0.00 0.00 24 1018.4
20260504011433 66 194 1.0 5.0 0.00 0.00 0.00 24 1018.5
20260504011159 67 194 4.0 11.0 0.00 0.00 0.00 24 1018.7
20260504010425 67 194 6.0 11.0 0.00 0.00 0.00 25 1018.8
20260504005924 67 185 6.0 13.0 0.00 0.00 0.00 24 1018.8
20260504005422 67 190 8.0 14.0 0.00 0.00 0.00 25 1019.0
20260504004921 67 223 9.0 19.0 0.00 0.00 0.00 24 1018.9
20260504004418 67 175 8.0 19.0 0.00 0.00 0.00 24 1019.0
20260504003914 68 179 7.0 15.0 0.00 0.00 0.00 25 1019.1
20260504003412 68 238 7.0 16.0 0.00 0.00 0.00 23 1019.4
20260504002907 68 175 8.0 16.0 0.00 0.00 0.00 23 1019.4
20260504002404 69 150 7.0 15.0 0.00 0.00 0.00 23 1019.6
20260504002123 69 184 6.0 16.0 0.00 0.00 0.00 25 1020.1
20260504001359 69 250 7.0 16.0 0.00 0.00 0.00 24 1020.0
20260504000855 69 191 8.0 14.0 0.00 0.00 0.00 24 1020.2
20260504000347 69 184 8.0 20.0 0.00 0.00 0.00 24 1020.2
20260503235837 69 194 8.0 20.0 0.00 0.00 0.00 24 1020.1
20260503235337 69 162 8.0 16.0 0.00 0.00 0.00 23 1020.2
20260503234837 70 167 8.0 15.0 0.00 0.00 0.00 23 1020.4
20260503234338 70 168 8.0 16.0 0.00 0.00 0.00 22 1020.6
20260503233835 71 177 7.0 16.0 0.00 0.00 0.00 23 1020.7
20260503233335 71 190 8.0 14.0 0.00 0.00 0.00 23 1020.7
20260503232831 70 171 8.0 16.0 0.00 0.00 0.00 22 1020.6
20260503232331 71 203 8.0 16.0 0.00 0.00 0.00 21 1021.0
20260503231830 71 221 7.0 18.0 0.00 0.00 0.00 22 1021.1
20260503231559 71 207 7.0 18.0 0.00 0.00 0.00 22 1021.2
20260503230831 71 188 7.0 13.0 0.00 0.00 0.00 22 1021.2
20260503230329 71 159 7.0 13.0 0.00 0.00 0.00 22 1021.3
20260503225829 71 158 7.0 15.0 0.00 0.00 0.00 22 1021.6
20260503225330 71 194 7.0 15.0 0.00 0.00 0.00 22 1021.7
20260503224829 72 175 6.0 14.0 0.00 0.00 0.00 23 1021.8
20260503224329 72 159 6.0 14.0 0.00 0.00 0.00 23 1022.2
20260503223827 72 195 6.0 19.0 0.00 0.00 0.00 24 1022.2
20260503223321 71 225 7.0 19.0 0.00 0.00 0.00 24 1022.2
20260503222819 71 219 7.0 12.0 0.00 0.00 0.00 24 1022.2
20260503222315 70 175 7.0 13.0 0.00 0.00 0.00 26 1021.9
20260503221813 71 168 7.0 15.0 0.00 0.00 0.00 25 1022.2
20260503221314 71 156 7.0 15.0 0.00 0.00 0.00 25 1022.4
20260503220814 70 228 8.0 15.0 0.00 0.00 0.00 26 1022.2
20260503220314 70 144 8.0 16.0 0.00 0.00 0.00 25 1022.4
20260503215813 71 173 6.0 16.0 0.00 0.00 0.00 25 1022.8
20260503215313 71 195 6.0 12.0 0.00 0.00 0.00 26 1022.9
20260503214814 71 193 7.0 13.0 0.00 0.00 0.00 25 1023.0
20260503214313 72 205 6.0 13.0 0.00 0.00 0.00 25 1023.3
20260503213813 72 184 7.0 13.0 0.00 0.00 0.00 25 1023.4
20260503213313 71 188 7.0 14.0 0.00 0.00 0.00 25 1023.5
20260503212813 71 178 6.0 14.0 0.00 0.00 0.00 25 1023.4
20260503212541 71 179 8.0 15.0 0.00 0.00 0.00 24 1023.2
20260503211811 72 221 8.0 15.0 0.00 0.00 0.00 23 1023.9
20260503211529 72 194 6.0 12.0 0.00 0.00 0.00 24 1023.9
20260503210811 72 202 7.0 14.0 0.00 0.00 0.00 24 1024.1
20260503210311 71 213 7.0 14.0 0.00 0.00 0.00 24 1023.9
20260503205809 71 163 6.0 12.0 0.00 0.00 0.00 24 1023.9
20260503205529 71 172 6.0 13.0 0.00 0.00 0.00 24 1024.4
20260503204806 71 141 6.0 13.0 0.00 0.00 0.00 23 1024.2
20260503204307 71 213 7.0 14.0 0.00 0.00 0.00 25 1024.2
20260503203804 71 236 7.0 14.0 0.00 0.00 0.00 26 1024.2
20260503203303 70 161 7.0 13.0 0.00 0.00 0.00 26 1024.2
20260503203026 70 158 7.0 15.0 0.00 0.00 0.00 25 1024.4
20260503202304 70 135 7.0 15.0 0.00 0.00 0.00 26 1024.4
20260503202028 69 163 7.0 14.0 0.00 0.00 0.00 26 1024.2
20260503201518 69 191 7.0 13.0 0.00 0.00 0.00 26 1024.4
20260503201013 69 236 7.0 16.0 0.00 0.00 0.00 27 1024.0
20260503200243 68 204 5.0 16.0 0.00 0.00 0.00 30 1023.8
20260503195736 68 166 4.0 11.0 0.00 0.00 0.00 27 1023.8
20260503195236 67 204 6.0 19.0 0.00 0.00 0.00 28 1023.9
20260503194735 67 206 7.0 19.0 0.00 0.00 0.00 27 1023.9
20260503194236 68 186 6.0 11.0 0.00 0.00 0.00 27 1024.2
20260503193956 68 207 5.0 12.0 0.00 0.00 0.00 27 1024.5
20260503193234 69 207 5.0 12.0 0.00 0.00 0.00 27 1024.9
20260503192734 68 192 5.0 9.0 0.00 0.00 0.00 28 1024.9
20260503192233 67 254 4.0 13.0 0.00 0.00 0.00 28 1024.2
20260503191731 66 139 3.0 13.0 0.00 0.00 0.00 25 1024.1
20260503191455 66 159 4.0 8.0 0.00 0.00 0.00 23 1024.0
20260503190731 66 166 4.0 11.0 0.00 0.00 0.00 25 1024.2
20260503190232 66 160 4.0 11.0 0.00 0.00 0.00 25 1024.1
20260503185730 65 186 4.0 9.0 0.00 0.00 0.00 27 1024.1
20260503185231 65 162 4.0 10.0 0.00 0.00 0.00 26 1024.2
20260503184732 65 198 4.0 10.0 0.00 0.00 0.00 26 1024.4
20260503184231 65 230 4.0 9.0 0.00 0.00 0.00 28 1024.4
20260503183744 65 221 4.0 0.0 0.00 0.00 0.00 29 1024.6
20260503183738 65 147 4.0 8.0 0.00 0.00 0.00 27 1024.5
20260503182802 65 180 4.0 10.0 0.00 0.00 0.00 30 1024.5
20260503182304 65 138 4.0 12.0 0.00 0.00 0.00 29 1024.6
20260503181802 65 180 6.0 15.0 0.00 0.00 0.00 31 1024.9
20260503181302 66 153 6.0 15.0 0.00 0.00 0.00 28 1025.3
20260503180802 67 198 4.0 10.0 0.00 0.00 0.00 29 1025.7
20260503180302 67 132 4.0 8.0 0.00 0.00 0.00 29 1025.8
20260503175802 67 146 5.0 9.0 0.00 0.00 0.00 28 1025.8
20260503175528 67 246 3.0 9.0 0.00 0.00 0.00 29 1025.8
20260503174802 66 185 3.0 7.0 0.00 0.00 0.00 31 1025.8
20260503174301 66 180 4.0 7.0 0.00 0.00 0.00 31 1025.7
20260503173800 65 160 4.0 8.0 0.00 0.00 0.00 32 1025.3
20260503173258 65 144 3.0 8.0 0.00 0.00 0.00 31 1025.3
20260503173019 64 161 3.0 7.0 0.00 0.00 0.00 33 1025.2
20260503172254 64 159 3.0 8.0 0.00 0.00 0.00 35 1025.5
20260503171754 64 113 3.0 10.0 0.00 0.00 0.00 36 1025.3
20260503171251 63 200 4.0 10.0 0.00 0.00 0.00 37 1025.3
20260503171009 63 109 4.0 9.0 0.00 0.00 0.00 38 1025.2
20260503170246 62 138 3.0 9.0 0.00 0.00 0.00 38 1025.0
20260503160208 58 57 3.0 7.0 0.00 0.00 0.00 46 1024.1
20260503150923 55 23 3.0 6.0 0.00 0.00 0.00 55 1023.2
20260503150201 55 24 3.0 6.0 0.00 0.00 0.00 56 1023.2
20260503140201 50 219 3.0 6.0 0.00 0.00 0.00 64 1021.6
20260503131202 39 217 0.0 2.0 0.00 0.00 0.00 82 1016.8
20260503130701 38 217 1.0 3.0 0.00 0.00 0.00 82 1016.5
20260503130201 37 217 1.0 3.0 0.00 0.00 0.00 83 1015.9
20260503110503 40 217 1.0 5.0 0.00 0.00 0.00 84 1017.0
20260503090411 44 217 2.0 6.0 0.00 0.00 0.00 76 1018.8
20260503081339 46 215 4.0 9.0 0.00 0.00 0.00 71 1019.9
20260503080831 46 209 3.0 9.0 0.00 0.00 0.00 71 1020.1
20260503080556 46 189 3.0 8.0 0.00 0.00 0.00 71 1020.1
20260503072815 46 202 3.0 8.0 0.00 0.00 0.00 69 1020.5
20260503072315 46 203 3.0 9.0 0.00 0.00 0.00 68 1020.5
20260503071816 46 203 4.0 9.0 0.00 0.00 0.00 68 1020.5
20260503071315 46 201 3.0 8.0 0.00 0.00 0.00 68 1020.5
20260503070813 46 198 3.0 6.0 0.00 0.00 0.00 67 1020.5
20260503070313 46 198 2.0 7.0 0.00 0.00 0.00 66 1020.5
20260503060239 48 198 3.0 5.0 0.00 0.00 0.00 61 1021.3
20260503054237 49 197 4.0 9.0 0.00 0.00 0.00 59 1021.8
20260503053737 49 202 4.0 9.0 0.00 0.00 0.00 59 1021.9
20260503053709 50 195 4.0 8.0 0.00 0.00 0.00 59 1022.1
20260503052730 50 194 4.0 9.0 0.00 0.00 0.00 58 1022.2
20260503052230 50 194 4.0 10.0 0.00 0.00 0.00 58 1022.2
20260503051956 50 182 5.0 12.0 0.00 0.00 0.00 58 1022.3
20260503051225 50 177 5.0 15.0 0.00 0.00 0.00 58 1022.4
20260503050721 50 200 5.0 15.0 0.00 0.00 0.00 58 1022.2
20260503050221 49 200 5.0 13.0 0.00 0.00 0.00 58 1022.1
20260503045721 49 202 3.0 10.0 0.00 0.00 0.00 58 1021.8
20260503045437 49 175 1.0 5.0 0.00 0.00 0.00 56 1022.1
20260503044719 50 175 1.0 4.0 0.00 0.00 0.00 55 1022.3
20260503044217 51 175 1.0 5.0 0.00 0.00 0.00 54 1022.4
20260503043717 51 175 2.0 5.0 0.00 0.00 0.00 54 1022.7
20260503043215 52 175 3.0 8.0 0.00 0.00 0.00 53 1022.8
20260503042711 52 175 5.0 10.0 0.00 0.00 0.00 53 1023.0
20260503042205 52 177 6.0 11.0 0.00 0.00 0.00 52 1022.8
20260503041702 52 175 5.0 11.0 0.00 0.00 0.00 53 1022.8
20260503041204 51 174 5.0 9.0 0.00 0.00 0.00 53 1022.5
20260503040701 51 176 5.0 9.0 0.00 0.00 0.00 53 1022.5
20260503040201 51 178 4.0 9.0 0.00 0.00 0.00 54 1022.3
20260503035926 50 178 3.0 9.0 0.00 0.00 0.00 55 1022.1
20260503035202 49 177 4.0 11.0 0.00 0.00 0.00 56 1021.6
20260503034701 48 176 3.0 11.0 0.00 0.00 0.00 58 1021.0
20260503034202 47 219 1.0 5.0 0.00 0.00 0.00 58 1020.5
20260503033928 47 219 0.0 5.0 0.00 0.00 0.00 56 1020.2
20260503033201 47 220 0.0 0.0 0.00 0.00 0.00 55 1020.2
20260503032702 47 220 0.0 0.0 0.00 0.00 0.00 53 1020.2
20260503032157 47 220 0.0 0.0 0.00 0.00 0.00 53 1020.1
20260503031650 47 220 0.0 0.0 0.00 0.00 0.00 53 1020.2
20260503031411 48 220 0.0 0.0 0.00 0.00 0.00 52 1020.2
20260503030649 48 220 0.0 0.0 0.00 0.00 0.00 51 1020.5
20260503030147 49 220 0.0 0.0 0.00 0.00 0.00 50 1020.6
20260503025646 49 220 0.0 0.0 0.00 0.00 0.00 50 1020.6
20260503025141 49 220 0.0 0.0 0.00 0.00 0.00 46 1020.7
20260503024638 50 220 0.0 0.0 0.00 0.00 0.00 46 1021.0
20260503024130 51 220 0.0 0.0 0.00 0.00 0.00 45 1021.2
20260503023630 51 220 0.0 0.0 0.00 0.00 0.00 46 1021.5
20260503023129 51 220 0.0 1.0 0.00 0.00 0.00 44 1021.6
20260503022629 52 220 0.0 2.0 0.00 0.00 0.00 43 1021.8
20260503022357 53 220 1.0 2.0 0.00 0.00 0.00 43 1022.1
20260503021635 53 220 1.0 2.0 0.00 0.00 0.00 42 1022.3
20260503021127 54 220 1.0 3.0 0.00 0.00 0.00 41 1022.4
20260503020624 54 220 0.0 2.0 0.00 0.00 0.00 41 1022.8
20260503020349 55 220 0.0 2.0 0.00 0.00 0.00 41 1023.2
20260503015617 56 220 0.0 2.0 0.00 0.00 0.00 39 1023.4
20260503015328 57 220 0.0 1.0 0.00 0.00 0.00 37 1023.8